{"data":{"norad_id":39613,"epoch":"2026-05-25T04:00:38.227104Z","epoch_age_seconds":63585,"freshness":"FRESH","line1":"1 39613U 14010B   26145.16710911  .00000000  00000+0  00000+0 0  9990","line2":"2 39613   0.0190 304.8103 0000554  39.0794  15.0325  1.00274673 44261","mean_motion":1.00274673,"eccentricity":5.54e-5,"inclination_deg":0.019,"raan_deg":304.8103,"arg_perigee_deg":39.0794,"mean_anomaly_deg":15.0325,"bstar":0,"rev_number":4426,"period_min":1436.0555431579,"perigee_km":35783.449488085,"apogee_km":35788.121250684,"semimajor_km":42163.922369385,"source":"CELESTRAK","updated_at":"2026-05-25T13:38:13.949297Z"}}